Regional Weather Roundup
Issued by NWS

Home | Current Version | Previous Version | Graphics & Text | Print | Product List | Glossary On
Versions: 1 2 3 4 5 6 7 8 9 10 11 12 13 14 15 16 17 18 19 20 21 22 23 24 25 26 27 28 29 30 31 32 33 34 35 36 37 38 39 40 41 42 43 44 45 46 47 48 49 50
234
ASUS43 KMPX 141201
RWRMN
WEATHER ROUNDUP FOR MINNESOTA
NATIONAL WEATHER SERVICE TWIN CITIES/CHANHASSEN MN
600 AM CST SUN FEB 14 2016


NOTE: "FAIR" INDICATES FEW OR NO CLOUDS BELOW 12,000 FEET WITH NO
SIGNIFICANT WEATHER AND/OR OBSTRUCTIONS TO VISIBILITY. N/A MEANS
CURRENT SKY AND/OR WEATHER CONDITIONS ARE NOT AVAILABLE.

MNZ060>063-068>070-141300-
   Twin Cities Metro

CITY           SKY/WX    TMP DP  RH WIND       PRES   REMARKS
TWIN CITIES    CLOUDY    11   0  61 SE12      30.11F WCI  -3
6HR MIN TEMP:   7; 6HR MAX TEMP:  11;

ST PAUL        CLOUDY    11   0  61 SE9       30.14F WCI  -2
CRYSTAL        CLOUDY    12   0  58 SE10      30.10F WCI  -1
BLAINE         FLURRIES  12   1  62 SE10      30.10S WCI  -1
LAKEVILLE      CLOUDY     9   3  78 SE8       30.10R WCI  -4
EDEN PRAIRIE   CLOUDY    12   1  61 SE10      30.09F WCI  -1
6HR MIN TEMP:  10; 6HR MAX TEMP:  12;

SOUTH ST PAUL  CLOUDY    12   0  58 SE10G16   30.12F WCI  -2
LAKE ELMO      CLOUDY    12   1  62 E8        30.12F WCI   1
$$
MNZ001>005-007-008-013>017-022>024-027-028-141300-
   Northwest Minnesota

CITY           SKY/WX    TMP DP  RH WIND       PRES   REMARKS
BEMIDJI        LGT SNOW   6   0  75 SE10      29.96S WCI  -8
HALLOCK        CLOUDY    14  10  85 S22       29.87F FOG     WCI  -4
ROSEAU         FLURRIES  10   5  79 S14       29.91F WCI  -5
WARROAD        FLURRIES   9   1  72 S10       29.93F WCI  -6
THIEF RVR FALL CLOUDY    12   5  73 S18G24    29.91F WCI  -5
CROOKSTON      LGT SNOW  12  10  92 S20       29.93F WCI  -6
FOSSTON        CLOUDY    10   3  72 SE18      29.92F WCI  -8
DETROIT LAKES  LGT SNOW  12   9  85 S14       29.94F WCI  -3
MOORHEAD       MIX PCPN  12   9  85 S17G24    29.94S WCI  -5
PARK RAPIDS    CLOUDY    10   0  63 SE12      29.95F WCI  -5
MAHNOMEN       CLOUDY    11   4  72 S12       29.93S WCI  -4
$$
MNZ006-009>011-018-025>026-141300-
   North Central Minnesota

CITY           SKY/WX    TMP DP  RH WIND       PRES   REMARKS
BAUDETTE       CLOUDY     5  -7  57 SE12      29.95F WCI -11
FLAG ISLAND    CLOUDY     7  -2  66 S21       29.93F WCI -13
INTL FALLS     CLOUDY     1 -12  54 SE8       30.02F WCI -13
6HR MIN TEMP: -13; 6HR MAX TEMP:   1;

WASKISH        CLOUDY     9  -4  56 SE6       29.97F WCI  -1
LONGVILLE      CLOUDY     7  -6  56 SE7       30.00F WCI  -5
GRAND RAPIDS   CLOUDY     3  -9  55 SE9       30.02F WCI -11
CRANE LAKE     CLOUDY   -15 -18  84 S2        30.11F
ORR            CLOUDY    -2 -15  55 CALM      30.02F
COOK           CLOUDY    -6 -15  65 E3        30.05F
WALKER         CLOUDY     7  -5  58 SE8       29.98F WCI  -6
$$
MNZ012-019>021-037-141300-
   Northeast Minnesota

CITY           SKY/WX    TMP DP  RH WIND       PRES   REMARKS
DULUTH         PTCLDY     1 -12  54 SE12      30.10F WCI -16
6HR MIN TEMP:  -3; 6HR MAX TEMP:   1;

ELY            CLOUDY   -20 -26  76 SE5       30.10F WCI -33
HIBBING        CLOUDY    -5 -13  68 SE10      30.06F WCI -23
EVELETH        CLOUDY    -9 -17  70 NE6       30.08F WCI -23
DULUTH HARBOR  CLOUDY     3 -11  51 SE3       30.20F
TWO HARBORS    CLEAR     -9 -17  70 CALM      30.14F
SILVER BAY     CLOUDY   -20 -27  69 CALM      30.16F
GRAND MARAIS     N/A     16   4  59 SW13      30.24F WCI   2
G MARAIS ARPRT CLOUDY     1  -6  71 S5        30.12F WCI  -8
$$
MNZ029>031-032-039>041-046>048-054>057-064-141300-
   West Central Minnesota

CITY           SKY/WX    TMP DP  RH WIND       PRES   REMARKS
FERGUS FALLS   LGT SNOW  12   9  85 SE16      29.98F WCI  -4
WHEATON        LGT SNOW  14  10  85 SE17      29.95F WCI  -3
MORRIS         LGT SNOW  12   9  85 SE18      29.95S WCI  -5
ALEXANDRIA     LGT SNOW  10   5  80 SE15      29.96F WCI  -7
ELBOW LAKE     LGT SNOW  11   9  89 E17G24    29.95F VSB 3/4 WCI  -6
WADENA         FLURRIES   9   1  72 SE13      29.97S WCI  -7
GLENWOOD       FLURRIES  10   7  85 SE16      29.98S WCI  -7
APPLETON       LGT SNOW  14  10  85 SE10      29.97S WCI   1
BENSON         LGT SNOW  12   9  85 S12G17    29.97F WCI  -2
ORTONVILLE     SNOW      12   9  85 SE15      29.93F VSB 1/2 WCI  -4
MADISON        SNOW      16  12  86 S17       29.96S VSB 1/2 WCI   0
WILLMAR        FLURRIES  14  10  85 SE17      30.01S WCI  -3
$$
MNZ033>034-036-042>043-049>051-058-059-141300-
   Central Minnesota

CITY           SKY/WX    TMP DP  RH WIND       PRES   REMARKS
ST CLOUD       CLOUDY    10   0  63 SE10G18   30.05F WCI  -4
6HR MIN TEMP:   9; 6HR MAX TEMP:  10;

SAUK CENTRE    CLOUDY    10   4  77 SE10G17   30.00F WCI  -4
PAYNESVILLE    CLOUDY    12   7  79 SE12G18   30.01F WCI  -2
AITKIN         CLOUDY     9  -8  47 SE12      30.03F WCI  -6
PINE RIVER     CLOUDY     7  -2  66 SE12      30.03F WCI  -9
BRAINERD       LGT SNOW   6  -2  69 SE8       30.03S WCI  -7
STAPLES        CLOUDY     9   1  72 SE9       29.99S HAZE    WCI  -5
LONG PRAIRIE   CLOUDY     9   3  78 SE10      30.00F WCI  -6
LITTLE FALLS   FLURRIES  10   1  67 SE10G16   30.04F WCI  -3
LITCHFIELD     CLOUDY    12   9  85 SE15      30.03F WCI  -4
BUFFALO        CLOUDY    11   1  65 E10       30.08F WCI  -3
MAPLE LAKE     CLOUDY    12   4  72 SE10      30.07F WCI  -2
$$
MNZ037-044-045-052-053-141300-
   East Central Minnesota

CITY           SKY/WX    TMP DP  RH WIND       PRES   REMARKS
PRINCETON      CLOUDY    10   0  61 SE9       30.08F WCI  -2
MORA           CLOUDY     9  -4  56 SE8       30.11F WCI  -4
CAMBRIDGE      FLURRIES  10  -2  56 CALM      30.08F
RUSH CITY      CLOUDY     8  -4  56 SE6       30.12F WCI  -2
MOOSE LAKE     CLOUDY     5  -9  51 SE6       30.09F WCI  -6
HINCKLEY       CLOUDY     9  -4  56 E7        30.11F WCI  -3
CLOQUET        CLOUDY     0 -13  55 SE8       30.09F WCI -15
MCGREGOR       CLOUDY     7  -6  56 SE8       30.06F WCI  -6
$$
MNZ071>073-080-081-089-090-097-098-141300-
   Southwest Minnesota

CITY           SKY/WX    TMP DP  RH WIND       PRES   REMARKS
MONTEVIDEO     LGT SNOW  12  10  92 S13       29.99F WCI  -3
GRANITE FALLS  LGT SNOW  14  11  88 SE13      29.99F WCI   0
CANBY          CLOUDY    17  13  82 SE13      29.94F WCI   4
MARSHALL       FLURRIES  14   9  80 S18       29.94F WCI  -3
REDWOOD FALLS  LGT SNOW  13   9  84 SE17      29.99F FOG     WCI  -4
OLIVIA         LGT SNOW  16  10  79 SE17      29.99F WCI   0
PIPESTONE      LGT SNOW  14   5  67 S15       29.87F WCI  -1
WINDOM         LGT SNOW  12  10  92 SE16G23   29.95F VSB 1   WCI  -4
WORTHINGTON    CLOUDY    12   7  79 SE16      29.92F WCI  -4
JACKSON        LGT SNOW  14  10  85 SE16      29.96F VSB 1   WCI  -2
TRACY          FLURRIES  15  11  84 S16       29.94S WCI  -1
SLAYTON        LGT SNOW  12  10  94 SE18      29.91F VSB 1   WCI  -6
$$
MNZ065>067-074>077-082>085-091>093-141300-
   South Central Minnesota

CITY           SKY/WX    TMP DP  RH WIND       PRES   REMARKS
MANKATO        CLOUDY    12   9  85 SE17G23   30.04F WCI  -5
NEW ULM        LGT SNOW  12   9  85 SE14      30.02F WCI  -3
ST JAMES       LGT SNOW  14  12  92 SE14      30.01F WCI  -1
FAIRMONT       CLOUDY    14   9  79 SE18      29.98F WCI  -3
GLENCOE        CLOUDY    14   9  83 SE13      30.05F WCI  -1
FARIBAULT      CLOUDY    12   7  79 SE12      30.09F WCI  -2
OWATONNA       CLOUDY    12   7  79 SE20      30.05F WCI  -6
WASECA         CLOUDY    14   9  79 SE21      30.05F WCI  -4
ALBERT LEA     LGT SNOW  12   9  85 SE20G25   30.03F VSB 1   WCI  -6
$$
MNZ078>079-086>088-094>096-141300-
   Southeast Minnesota

CITY           SKY/WX    TMP DP  RH WIND       PRES   REMARKS
ROCHESTER      CLOUDY     9   3  77 SE20      30.09F WCI -10
6HR MIN TEMP:   6; 6HR MAX TEMP:   9;

RED WING       CLOUDY    12  -2  52 SE16      30.14F WCI  -4
STANTON        CLOUDY    13   3  65 SE8       30.10F WCI   1
DODGE CENTER   CLOUDY     9   5  85 SE20      30.06F WCI -11
WINONA         CLOUDY    10   0  61 SE10      30.20F WCI  -3
AUSTIN         LGT SNOW  10   9  92 SE13      30.08F WCI  -5
PRESTON        LGT SNOW   9   3  79 SE12      30.12F WCI  -6
$$
ABBREVIATIONS USED IN REMARKS
   TC - TEMPERATURES IN CELSIUS
  WCI - WIND CHILL INDEX
   HX - HEAT INDEX
  VSB - VISIBILITY
$$




USA.gov is the U.S. government's official web portal to all federal, state and local government web resources and services.